Location: Dimsdale
(55.1333°N, 118.9833°W)
Time: 23:28:58
(UTC+00:00)

MOZHAYETS 4 - Pass Details

Date: 06 December 2023
Orbit: 654 x 672 km, 98.3° (Epoch: 26 February)

Event Time Altitude Azimuth Distance (km) Brightness Sun altitude
Exits shadow 02:09:39 - 5° (N) 2,931 10.9 -21.5°
Reaches altitude 10° 02:12:31 10° 343° (NNW) 2,120 10.4 -21.9°
Maximum altitude 02:14:57 14° 311° (NW) 1,839 10.5 -22.2°
Drops below altitude 10° 02:17:23 10° 279° (W) 2,116 11.3 -22.6°
Sets 02:20:33 0° 255° (WSW) 3,027 12.5 -23.0°
